| time (UTC) | temp F | wind direction | speed MPH | gust MPH | rain 1hr in | rain 24hr in | rain mn in | humidity % | barometer mb |
| 20260504045941 | 52 | 187 | 2.0 | 6.0 | 0.00 | 0.00 | 0.00 | 79 | 985.5 |
| 20260504044437 | 52 | 239 | 3.0 | 8.0 | 0.00 | 0.00 | 0.00 | 79 | 985.7 |
| 20260504042934 | 52 | 206 | 6.0 | 7.0 | 0.00 | 0.00 | 0.00 | 78 | 985.6 |
| 20260504041429 | 52 | 193 | 3.0 | 4.0 | 0.00 | 0.00 | 0.00 | 78 | 985.6 |
| 20260504035925 | 52 | 183 | 2.0 | 9.0 | 0.00 | 0.00 | 0.00 | 76 | 986.0 |
| 20260504034423 | 52 | 154 | 3.0 | 9.0 | 0.00 | 0.00 | 0.00 | 76 | 986.0 |
| 20260504032920 | 52 | 183 | 5.0 | 14.0 | 0.00 | 0.00 | 0.00 | 75 | 986.1 |
| 20260504031417 | 52 | 168 | 7.0 | 10.0 | 0.00 | 0.00 | 0.00 | 75 | 986.1 |
| 20260504025911 | 52 | 153 | 4.0 | 8.0 | 0.00 | 0.00 | 0.00 | 75 | 986.2 |
| 20260504024408 | 52 | 152 | 4.0 | 9.0 | 0.00 | 0.00 | 0.00 | 75 | 986.1 |
| 20260504022908 | 52 | 170 | 3.0 | 7.0 | 0.00 | 0.00 | 0.00 | 74 | 986.4 |
| 20260504021405 | 52 | 193 | 6.0 | 8.0 | 0.00 | 0.00 | 0.00 | 73 | 986.3 |
| 20260504015900 | 53 | 153 | 6.0 | 8.0 | 0.00 | 0.00 | 0.00 | 72 | 986.4 |
| 20260504014355 | 53 | 92 | 4.0 | 8.0 | 0.00 | 0.00 | 0.00 | 71 | 986.1 |
| 20260504012852 | 53 | 182 | 4.0 | 7.0 | 0.00 | 0.00 | 0.00 | 70 | 986.2 |
| 20260504011350 | 54 | 148 | 5.0 | 9.0 | 0.00 | 0.00 | 0.00 | 69 | 986.2 |
| 20260504005850 | 55 | 139 | 3.0 | 6.0 | 0.00 | 0.00 | 0.00 | 66 | 985.8 |
| 20260504004348 | 55 | 162 | 3.0 | 15.0 | 0.00 | 0.00 | 0.00 | 65 | 986.1 |
| 20260504002848 | 56 | 130 | 4.0 | 9.0 | 0.00 | 0.00 | 0.00 | 63 | 985.9 |
| 20260504001346 | 57 | 170 | 7.0 | 11.0 | 0.00 | 0.00 | 0.00 | 61 | 986.2 |
| 20260503235843 | 58 | 140 | 6.0 | 8.0 | 0.00 | 0.00 | 0.00 | 60 | 986.5 |
| 20260503234341 | 58 | 167 | 4.0 | 13.0 | 0.00 | 0.00 | 0.00 | 60 | 986.5 |
| 20260503232837 | 58 | 181 | 9.0 | 11.0 | 0.00 | 0.00 | 0.00 | 60 | 986.5 |
| 20260503231335 | 58 | 125 | 4.0 | 9.0 | 0.00 | 0.00 | 0.00 | 60 | 986.9 |
| 20260503225832 | 58 | 179 | 6.0 | 9.0 | 0.00 | 0.00 | 0.00 | 59 | 987.1 |
| 20260503224327 | 58 | 150 | 3.0 | 7.0 | 0.00 | 0.00 | 0.00 | 59 | 987.4 |
| 20260503222824 | 58 | 176 | 10.0 | 11.0 | 0.00 | 0.00 | 0.00 | 58 | 987.7 |
| 20260503221319 | 57 | 163 | 4.0 | 15.0 | 0.00 | 0.00 | 0.00 | 59 | 988.1 |
| 20260503215814 | 57 | 203 | 10.0 | 15.0 | 0.00 | 0.00 | 0.00 | 58 | 988.4 |
| 20260503214312 | 58 | 232 | 6.0 | 13.0 | 0.00 | 0.00 | 0.00 | 57 | 988.5 |
| 20260503212809 | 56 | 207 | 2.0 | 10.0 | 0.00 | 0.00 | 0.00 | 63 | 988.5 |
| 20260503211307 | 55 | 148 | 3.0 | 9.0 | 0.00 | 0.00 | 0.00 | 66 | 988.4 |
| 20260503205805 | 54 | 220 | 4.0 | 7.0 | 0.00 | 0.00 | 0.00 | 66 | 988.8 |
| 20260503204302 | 53 | 140 | 2.0 | 6.0 | 0.00 | 0.00 | 0.00 | 67 | 988.9 |
| 20260503202759 | 52 | 187 | 2.0 | 15.0 | 0.00 | 0.00 | 0.00 | 68 | 989.1 |
| 20260503201258 | 52 | 147 | 3.0 | 11.0 | 0.00 | 0.00 | 0.00 | 72 | 989.5 |
| 20260503195755 | 50 | 65 | 6.0 | 14.0 | 0.00 | 0.00 | 0.00 | 75 | 990.2 |
| 20260503194250 | 49 | 129 | 6.0 | 14.0 | 0.00 | 0.00 | 0.00 | 78 | 990.1 |
| 20260503192750 | 50 | 257 | 5.0 | 17.0 | 0.00 | 0.00 | 0.00 | 78 | 990.5 |
| 20260503191245 | 53 | 186 | 12.0 | 25.0 | 0.00 | 0.00 | 0.00 | 65 | 990.7 |
| 20260503185742 | 55 | 273 | 15.0 | 22.0 | 0.00 | 0.00 | 0.00 | 61 | 991.0 |
| 20260503184241 | 56 | 203 | 10.0 | 17.0 | 0.00 | 0.00 | 0.00 | 58 | 990.7 |
| 20260503182738 | 59 | 218 | 14.0 | 18.0 | 0.00 | 0.00 | 0.00 | 54 | 990.6 |
| 20260503181235 | 60 | 248 | 16.0 | 23.0 | 0.00 | 0.00 | 0.00 | 51 | 990.6 |
| 20260503175732 | 59 | 210 | 13.0 | 19.0 | 0.00 | 0.00 | 0.00 | 52 | 990.9 |
| 20260503174230 | 60 | 265 | 6.0 | 17.0 | 0.00 | 0.00 | 0.00 | 53 | 990.9 |
| 20260503172729 | 60 | 228 | 5.0 | 13.0 | 0.00 | 0.00 | 0.00 | 52 | 991.1 |
| 20260503171226 | 58 | 272 | 10.0 | 17.0 | 0.00 | 0.00 | 0.00 | 53 | 991.3 |
| 20260503131139 | 50 | 242 | 9.0 | 14.0 | 0.00 | 0.00 | 0.00 | 58 | 992.9 |
| 20260503081047 | 41 | 190 | 0.0 | 2.0 | 0.00 | 0.00 | 0.00 | 73 | 993.0 |
| 20260503072539 | 41 | 122 | 1.0 | 4.0 | 0.00 | 0.00 | 0.00 | 66 | 993.2 |
| 20260503071036 | 41 | 174 | 2.0 | 4.0 | 0.00 | 0.00 | 0.00 | 64 | 993.3 |